Regional Weather Roundup
Issued by NWS

Current Version | Previous Version | Text Only | Print | Product List | Glossary On
Versions: 1 2 3 4 5 6 7 8 9 10 11 12 13 14 15 16 17 18 19 20 21 22 23 24 25 26 27 28 29 30 31 32 33 34 35 36 37 38 39 40 41 42 43 44 45 46 47 48 49 50
000
ASUS44 KMEG 202110
RWRTN
TENNESSEE HOURLY STATE WEATHER ROUNDUP
NATIONAL WEATHER SERVICE MEMPHIS TN
400 PM CDT SUN APR 20 2014

TNZ002-004-019-021-049-052-054-088>092-202200-
WEST TENNESSEE

CITY           SKY/WX    TMP DP  RH WIND       PRES   REMARKS
MEMPHIS INTL   MOSUNNY   80  45  28 VRB6      30.11F
NWS MEMPHIS      N/A     82 N/A N/A MISG        N/A
JACKSON        SUNNY     80  43  26 CALM      30.12F
DYERSBURG      MOSUNNY   79  45  29 CALM      30.13S
UNION CITY     SUNNY     75  43  31 CALM      30.12F
PARIS          MOSUNNY   77  42  28 CALM      30.13F
LEXINGTON      SUNNY     79  43  27 SW6       30.12F
SAVANNAH       SUNNY     78  44  29 CALM      30.13F
$$

TNZ008-025-027-028-033-062-065-066-202200-
NORTH MIDDLE TENNESSEE

CITY           SKY/WX    TMP DP  RH WIND       PRES   REMARKS
NASHVILLE      MOSUNNY   80  38  22 CALM      30.14F
DICKSON        MOSUNNY   79  37  22 VRB6      30.13F
PORTLAND         N/A     75  45  33 N5        30.14F
CLARKSVILLE    MOSUNNY   78  38  23 E5        30.13F
SMYRNA         SUNNY     80  42  25 CALM      30.14F
MURFREESBORO   MOSUNNY   78  41  26 VRB5      30.14F
COOKEVILLE     SUNNY     81  43  26 W3        30.14F
LIVINGSTON     SUNNY     76  37  24 CALM      30.15
GALLATIN       MOSUNNY   78  43  28 E5        30.16F
CROSSVILLE     SUNNY     76  34  21 N6        30.16F
$$

TNZ061-075-076-078-094-096-097-202200-
SOUTH MIDDLE TENNESSEE

CITY           SKY/WX    TMP DP  RH WIND       PRES   REMARKS
LEWISBURG      MOSUNNY   80  46  30 CALM      30.14F
FAYETTEVILLE   MOSUNNY   75  42  30 CALM      30.15F
TULLAHOMA      SUNNY     75  41  29 CALM      30.16S
WINCHESTER     SUNNY     77  45  31 VRB3      30.14F
MCMINNVILLE    SUNNY     75  43  31 N3        30.15F
COLUMBIA       SUNNY     79  52  38 CALM      30.13F
SHELBYVILLE    MOSUNNY   79  46  31 S3        30.16F
$$

TNZ017-018-042-046-047-202200-
NORTHEAST TENNESSEE

CITY           SKY/WX    TMP DP  RH WIND       PRES   REMARKS
TRI CITIES     MOSUNNY   75  26  16 NW5       30.16F
ELIZABETHTON   CLEAR     73  32  21 CALM      30.15F
$$

TNZ012-013-036-069-073-074-202200-
CENTRAL EAST TENNESSEE

CITY           SKY/WX    TMP DP  RH WIND       PRES   REMARKS
KNOXVILLE      MOSUNNY   75  40  28 N8        30.14F
OAK RIDGE      SUNNY     78  37  22 NE6       30.15F
$$

TNZ083-085-099-202200-
SOUTHEAST TENNESSEE

CITY           SKY/WX    TMP DP  RH WIND       PRES   REMARKS
CHATTANOOGA    PTSUNNY   79  36  21 N12       30.13F
$$

SKY/WX REPORTED AS FAIR MEANS FEW OR NO CLOUDS BELOW
12 THOUSAND FEET.




USA.gov is the U.S. government's official web portal to all federal, state and local government web resources and services.